| time (UTC) | temp C | wind direction | speed KPH | gust KPH | rain 1hr cm | rain 24hr cm | rain mn cm | humidity % | barometer mb |
| 20260505125016 | 18 | 74 | 1.6 | 4.8 | 0.00 | 0.00 | 0.00 | 88 | 1005.9 |
| 20260505124036 | 18 | 40 | 0.0 | 4.8 | 0.00 | 0.00 | 0.00 | 88 | 1005.8 |
| 20260505123016 | 18 | 67 | 0.0 | 3.2 | 0.00 | 0.00 | 0.00 | 87 | 1005.6 |
| 20260505122016 | 18 | 69 | 0.0 | 3.2 | 0.00 | 0.00 | 0.00 | 87 | 1005.4 |
| 20260505121016 | 18 | 64 | 0.0 | 3.2 | 0.00 | 0.00 | 0.00 | 87 | 1005.4 |
| 20260505120016 | 18 | 72 | 1.6 | 3.2 | 0.00 | 0.00 | 0.00 | 87 | 1005.4 |
| 20260505115016 | 18 | 105 | 0.0 | 1.6 | 0.00 | 0.00 | 0.00 | 87 | 1004.9 |
| 20260505114018 | 18 | 94 | 0.0 | 3.2 | 0.00 | 0.00 | 0.00 | 86 | 1004.8 |
| 20260505113016 | 19 | 55 | 0.0 | 4.8 | 0.00 | 0.00 | 0.00 | 85 | 1004.7 |
| 20260505112036 | 19 | 63 | 1.6 | 3.2 | 0.00 | 0.00 | 0.00 | 85 | 1004.7 |
| 20260505111016 | 19 | 67 | 0.0 | 1.6 | 0.00 | 0.00 | 0.00 | 85 | 1004.7 |
| 20260505102016 | 19 | 83 | 1.6 | 6.4 | 0.00 | 0.00 | 0.00 | 83 | 1004.2 |
| 20260505101016 | 19 | 171 | 0.0 | 6.4 | 0.00 | 0.00 | 0.00 | 82 | 1003.9 |
| 20260505100016 | 20 | 184 | 4.8 | 11.3 | 0.00 | 0.00 | 0.00 | 81 | 1003.9 |
| 20260505095016 | 19 | 146 | 1.6 | 9.7 | 0.00 | 0.00 | 0.00 | 80 | 1003.8 |
| 20260505094016 | 19 | 157 | 3.2 | 9.7 | 0.00 | 0.00 | 0.00 | 80 | 1003.9 |
| 20260505093015 | 19 | 145 | 3.2 | 4.8 | 0.00 | 0.00 | 0.00 | 79 | 1003.8 |
| 20260505092015 | 19 | 153 | 1.6 | 4.8 | 0.00 | 0.00 | 0.00 | 79 | 1003.8 |
| 20260505091016 | 19 | 58 | 0.0 | 3.2 | 0.00 | 0.00 | 0.00 | 77 | 1003.6 |
| 20260505090015 | 19 | 71 | 1.6 | 4.8 | 0.00 | 0.00 | 0.00 | 77 | 1003.7 |
| 20260505085016 | 19 | 65 | 0.0 | 1.6 | 0.00 | 0.00 | 0.00 | 77 | 1004.2 |
| 20260505084016 | 19 | 52 | 0.0 | 1.6 | 0.00 | 0.00 | 0.00 | 76 | 1004.1 |
| 20260505083014 | 19 | 57 | 1.6 | 6.4 | 0.00 | 0.00 | 0.00 | 76 | 1004.2 |
| 20260505082016 | 19 | 71 | 1.6 | 4.8 | 0.00 | 0.00 | 0.00 | 76 | 1004.3 |
| 20260505081016 | 19 | 75 | 3.2 | 9.7 | 0.00 | 0.00 | 0.00 | 76 | 1004.7 |
| 20260505080016 | 18 | 23 | 3.2 | 6.4 | 0.00 | 0.00 | 0.00 | 77 | 1004.8 |
| 20260505075016 | 18 | 29 | 3.2 | 4.8 | 0.00 | 0.00 | 0.00 | 78 | 1004.7 |
| 20260505074016 | 18 | 42 | 1.6 | 4.8 | 0.00 | 0.00 | 0.00 | 80 | 1004.8 |
| 20260505073016 | 18 | 354 | 1.6 | 4.8 | 0.00 | 0.00 | 0.00 | 80 | 1004.9 |
| 20260505072016 | 18 | 76 | 0.0 | 3.2 | 0.00 | 0.00 | 0.00 | 81 | 1005.0 |
| 20260505071018 | 18 | 0.0 | 1.6 | 0.00 | 0.00 | 0.00 | 79 | 1005.4 | |
| 20260505070016 | 17 | 156 | 1.6 | 3.2 | 0.00 | 0.00 | 0.00 | 79 | 1005.6 |
| 20260505065016 | 18 | 119 | 3.2 | 8.0 | 0.00 | 0.00 | 0.00 | 79 | 1005.8 |
| 20260505064016 | 17 | 313 | 1.6 | 4.8 | 0.00 | 0.00 | 0.00 | 79 | 1006.2 |
| 20260505063016 | 17 | 321 | 4.8 | 6.4 | 0.00 | 0.00 | 0.00 | 83 | 1006.5 |
| 20260505062016 | 16 | 146 | 1.6 | 3.2 | 0.00 | 0.00 | 0.00 | 82 | 1006.6 |
| 20260505061036 | 16 | 141 | 1.6 | 3.2 | 0.00 | 0.00 | 0.00 | 84 | 1006.4 |
| 20260505060016 | 16 | 141 | 0.0 | 3.2 | 0.00 | 0.00 | 0.00 | 84 | 1006.3 |
| 20260505055016 | 16 | 141 | 1.6 | 3.2 | 0.00 | 0.00 | 0.00 | 84 | 1006.3 |
| 20260505054016 | 16 | 141 | 1.6 | 3.2 | 0.00 | 0.00 | 0.00 | 85 | 1006.3 |
| 20260505053016 | 16 | 141 | 1.6 | 3.2 | 0.00 | 0.00 | 0.00 | 85 | 1006.3 |
| 20260505052016 | 16 | 141 | 0.0 | 1.6 | 0.00 | 0.00 | 0.00 | 84 | 1006.3 |
| 20260505051036 | 16 | 141 | 0.0 | 3.2 | 0.00 | 0.00 | 0.00 | 86 | 1006.4 |
| 20260505041016 | 16 | 146 | 0.0 | 1.6 | 0.00 | 0.00 | 0.00 | 86 | 1007.1 |
| 20260505040036 | 16 | 146 | 0.0 | 1.6 | 0.00 | 0.00 | 0.00 | 85 | 1007.2 |
| 20260505035016 | 16 | 146 | 0.0 | 1.6 | 0.00 | 0.00 | 0.00 | 84 | 1007.3 |
| 20260505034016 | 16 | 146 | 0.0 | 1.6 | 0.00 | 0.00 | 0.00 | 82 | 1007.3 |
| 20260505033016 | 17 | 0.0 | 0.0 | 0.00 | 0.00 | 0.00 | 81 | 1007.3 | |
| 20260505032016 | 17 | 146 | 0.0 | 1.6 | 0.00 | 0.00 | 0.00 | 80 | 1007.4 |
| 20260505031016 | 17 | 146 | 0.0 | 1.6 | 0.00 | 0.00 | 0.00 | 79 | 1007.5 |
| 20260505030016 | 17 | 0.0 | 1.6 | 0.00 | 0.00 | 0.00 | 78 | 1007.6 | |
| 20260505025016 | 18 | 147 | 1.6 | 3.2 | 0.00 | 0.00 | 0.00 | 77 | 1007.4 |
| 20260505024038 | 18 | 153 | 0.0 | 1.6 | 0.00 | 0.00 | 0.00 | 75 | 1007.3 |
| 20260505023016 | 18 | 163 | 1.6 | 8.0 | 0.00 | 0.00 | 0.00 | 74 | 1007.1 |
| 20260505022016 | 19 | 164 | 1.6 | 3.2 | 0.00 | 0.00 | 0.00 | 73 | 1006.8 |
| 20260505021016 | 19 | 164 | 0.0 | 1.6 | 0.00 | 0.00 | 0.00 | 72 | 1006.8 |
| 20260505020036 | 20 | 164 | 1.6 | 3.2 | 0.00 | 0.00 | 0.00 | 71 | 1006.6 |
| 20260505015036 | 20 | 164 | 1.6 | 3.2 | 0.00 | 0.00 | 0.00 | 69 | 1006.5 |
| 20260505014036 | 21 | 164 | 0.0 | 3.2 | 0.00 | 0.00 | 0.00 | 68 | 1006.4 |
| 20260505013015 | 21 | 168 | 0.0 | 3.2 | 0.00 | 0.00 | 0.00 | 62 | 1006.4 |
| 20260505012015 | 21 | 168 | 1.6 | 4.8 | 0.00 | 0.00 | 0.00 | 62 | 1006.4 |
| 20260505011015 | 22 | 184 | 1.6 | 9.7 | 0.00 | 0.00 | 0.00 | 61 | 1006.3 |
| 20260505010036 | 22 | 178 | 3.2 | 9.7 | 0.00 | 0.00 | 0.00 | 60 | 1006.1 |
| 20260505005016 | 22 | 173 | 4.8 | 17.7 | 0.00 | 0.00 | 0.00 | 60 | 1006.0 |
| 20260505004036 | 22 | 170 | 3.2 | 8.0 | 0.00 | 0.00 | 0.00 | 60 | 1006.1 |
| 20260505003016 | 23 | 168 | 3.2 | 8.0 | 0.00 | 0.00 | 0.00 | 59 | 1006.1 |
| 20260505002016 | 23 | 172 | 4.8 | 16.1 | 0.00 | 0.00 | 0.00 | 58 | 1006.2 |
| 20260505001036 | 23 | 180 | 4.8 | 17.7 | 0.00 | 0.00 | 0.00 | 58 | 1006.2 |
| 20260505000036 | 23 | 168 | 4.8 | 11.3 | 0.00 | 0.00 | 0.00 | 57 | 1006.1 |
| 20260504235015 | 23 | 170 | 8.0 | 16.1 | 0.00 | 0.00 | 0.00 | 57 | 1006.2 |
| 20260504234036 | 23 | 163 | 6.4 | 17.7 | 0.00 | 0.00 | 0.00 | 57 | 1006.4 |
| 20260504233016 | 23 | 165 | 6.4 | 14.5 | 0.00 | 0.00 | 0.00 | 57 | 1006.5 |
| 20260504232036 | 23 | 163 | 6.4 | 14.5 | 0.00 | 0.00 | 0.00 | 56 | 1006.5 |
| 20260504231015 | 23 | 169 | 11.3 | 20.9 | 0.00 | 0.00 | 0.00 | 55 | 1006.6 |
| 20260504230015 | 24 | 172 | 9.7 | 19.3 | 0.00 | 0.00 | 0.00 | 56 | 1006.6 |
| 20260504225015 | 24 | 162 | 9.7 | 19.3 | 0.00 | 0.00 | 0.00 | 55 | 1006.7 |
| 20260504224016 | 24 | 158 | 6.4 | 19.3 | 0.00 | 0.00 | 0.00 | 56 | 1006.8 |
| 20260504223016 | 25 | 159 | 9.7 | 20.9 | 0.00 | 0.00 | 0.00 | 54 | 1006.9 |
| 20260504222015 | 25 | 151 | 8.0 | 20.9 | 0.00 | 0.00 | 0.00 | 54 | 1007.0 |
| 20260504221015 | 25 | 163 | 8.0 | 14.5 | 0.00 | 0.00 | 0.00 | 54 | 1006.9 |
| 20260504220016 | 25 | 170 | 9.7 | 20.9 | 0.00 | 0.00 | 0.00 | 53 | 1006.9 |
| 20260504215041 | 25 | 166 | 12.9 | 25.7 | 0.00 | 0.00 | 0.00 | 52 | 1007.1 |
| 20260504214015 | 25 | 161 | 11.3 | 19.3 | 0.00 | 0.00 | 0.00 | 52 | 1007.2 |
| 20260504213015 | 25 | 160 | 14.5 | 24.1 | 0.00 | 0.00 | 0.00 | 50 | 1007.3 |
| 20260504212016 | 26 | 178 | 12.9 | 24.1 | 0.00 | 0.00 | 0.00 | 50 | 1007.5 |
| 20260504211016 | 26 | 196 | 8.0 | 19.3 | 0.00 | 0.00 | 0.00 | 51 | 1007.5 |
| 20260504210016 | 26 | 197 | 8.0 | 19.3 | 0.00 | 0.00 | 0.00 | 51 | 1007.7 |
| 20260504205016 | 26 | 171 | 14.5 | 25.7 | 0.00 | 0.00 | 0.00 | 50 | 1007.9 |
| 20260504204016 | 26 | 203 | 12.9 | 22.5 | 0.00 | 0.00 | 0.00 | 49 | 1008.0 |
| 20260504203016 | 26 | 199 | 12.9 | 22.5 | 0.00 | 0.00 | 0.00 | 50 | 1008.3 |
| 20260504202016 | 26 | 191 | 9.7 | 27.4 | 0.00 | 0.00 | 0.00 | 50 | 1008.4 |
| 20260504201016 | 25 | 168 | 11.3 | 27.4 | 0.00 | 0.00 | 0.00 | 52 | 1008.5 |
| 20260504200015 | 26 | 175 | 14.5 | 27.4 | 0.00 | 0.00 | 0.00 | 49 | 1008.7 |
| 20260504195016 | 26 | 195 | 12.9 | 29.0 | 0.00 | 0.00 | 0.00 | 50 | 1008.9 |
| 20260504194015 | 26 | 205 | 12.9 | 27.4 | 0.00 | 0.00 | 0.00 | 49 | 1009.1 |
| 20260504193017 | 26 | 198 | 11.3 | 24.1 | 0.00 | 0.00 | 0.00 | 50 | 1009.1 |
| 20260504192018 | 26 | 177 | 11.3 | 22.5 | 0.00 | 0.00 | 0.00 | 51 | 1009.3 |
| 20260504191018 | 26 | 198 | 9.7 | 29.0 | 0.00 | 0.00 | 0.00 | 50 | 1009.4 |
| 20260504190018 | 26 | 236 | 12.9 | 24.1 | 0.00 | 0.00 | 0.00 | 47 | 1009.6 |
| 20260504185018 | 26 | 214 | 9.7 | 25.7 | 0.00 | 0.00 | 0.00 | 50 | 1009.7 |
| 20260504184018 | 25 | 175 | 12.9 | 27.4 | 0.00 | 0.00 | 0.00 | 51 | 1009.8 |
| 20260504183018 | 26 | 217 | 9.7 | 22.5 | 0.00 | 0.00 | 0.00 | 49 | 1010.0 |
| 20260504182017 | 25 | 220 | 9.7 | 24.1 | 0.00 | 0.00 | 0.00 | 49 | 1010.1 |
| 20260504181016 | 25 | 203 | 11.3 | 24.1 | 0.00 | 0.00 | 0.00 | 49 | 1010.2 |
| 20260504180018 | 26 | 179 | 9.7 | 30.6 | 0.00 | 0.00 | 0.00 | 51 | 1010.2 |
| 20260504175017 | 25 | 226 | 6.4 | 20.9 | 0.00 | 0.00 | 0.00 | 50 | 1010.3 |
| 20260504174018 | 25 | 232 | 11.3 | 32.2 | 0.00 | 0.00 | 0.00 | 48 | 1010.5 |
| 20260504173018 | 25 | 236 | 12.9 | 29.0 | 0.00 | 0.00 | 0.00 | 48 | 1010.6 |
| 20260504172018 | 25 | 225 | 11.3 | 25.7 | 0.00 | 0.00 | 0.00 | 47 | 1010.7 |
| 20260504171018 | 25 | 221 | 11.3 | 25.7 | 0.00 | 0.00 | 0.00 | 49 | 1010.8 |
| 20260504151059 | 22 | 240 | 8.0 | 19.3 | 0.00 | 0.00 | 0.00 | 55 | 1011.7 |
| 20260504141018 | 21 | 230 | 6.4 | 16.1 | 0.00 | 0.00 | 0.00 | 55 | 1012.0 |